Regional Weather Roundup
Issued by NWS

Home | Current Version | Previous Version | Graphics & Text | Print | Product List | Glossary On
Versions: 1 2 3 4 5 6 7 8 9 10 11 12 13 14 15 16 17 18 19 20 21 22 23 24 25 26 27 28 29 30 31 32 33 34 35 36 37 38 39 40 41 42 43 44 45 46 47 48 49 50
000
ASUS43 KDMX 202001
RWRIA

WEATHER ROUNDUP FOR IOWA
NATIONAL WEATHER SERVICE DES MOINES IA
200 PM CST MON NOV 20 2017

NOTE: "FAIR" INDICATES FEW OR NO CLOUDS BELOW 12,000 FEET WITH NO
SIGNIFICANT WEATHER AND/OR OBSTRUCTIONS TO VISIBILITY.

* - THESE STATIONS ARE NOT NWS STATIONS...THUS NOT UNDER NWS
QUALITY CONTROL.  THEY ALSO DO NOT REPORT WEATHER SUCH
AS PRECIPITATION OR FOG.

IAZ001>003-012>014-020>022-031>034-043>046-202100-
   NORTHWEST IOWA

CITY           SKY/WX    TMP DP  RH WIND       PRES   REMARKS
CARROLL *      CLOUDY    55  27  33 SW24G36   29.56S
DENISON *      CLOUDY    55  25  30 SW18G30   29.58S
LE MARS *      CLOUDY    52  27  37 SW12      29.54S
ORANGE CITY *  CLOUDY    50  30  46 SW17      29.52F
SHELDON *      CLOUDY    48  28  46 SW8G16    29.51S
SIOUX CITY     CLOUDY    53  27  36 SW14G21   29.55F
SPENCER        CLOUDY    48  28  46 SW14G23   29.53R
STORM LAKE *   CLOUDY    52  25  35 SW21G29   29.53F
$$

IAZ055>058-069>071-079>083-090>094-202100-
   SOUTHWEST IOWA

CITY           SKY/WX    TMP DP  RH WIND       PRES   REMARKS
ATLANTIC *     CLOUDY    57  28  33 SW21      29.61F
AUDUBON *      CLOUDY    57  27  30 SW17G26   29.61R
CLARINDA *     CLOUDY    61  27  27 SW22G30     N/A
COUNCIL BLFS * CLOUDY    57  28  33 SW21G29   29.61F
CRESTON *      CLOUDY    59  27  29 SW28G33   29.65F
HARLAN  *      CLOUDY    57  28  33 SW18G28   29.64S
LAMONI         SUNNY     60  28  29 SW24G35   29.69F
RED OAK *      CLOUDY    59  28  31 SW17G24   29.64F
SHENANDOAH *   CLOUDY    59  27  29 SW22G31   29.65F
$$

IAZ047>049-059>061-072>074-084-202100-
   CENTRAL IOWA

CITY           SKY/WX    TMP DP  RH WIND       PRES   REMARKS
AMES           CLOUDY    58  31  35 SW21G30   29.58F
ANKENY *       CLOUDY    61  27  27 SW24G33   29.61F
BOONE *        CLOUDY    59  28  31 SW20G32   29.56F
CHARITON *     SUNNY     61  25  25 SW22G32   29.66F
DES MOINES     CLOUDY    61  26  26 S16G35    29.61F
GRINNELL*      SUNNY     60  28  29 SW22G32   29.64F
KNOXVILLE *    SUNNY     61  25  25 SW29      29.63S
MARSHALLTOWN   CLOUDY    59  31  34 S18G31    29.58F
NEWTON *       CLOUDY    61  28  29 SW24G35   29.62F
PELLA *        SUNNY     62  24  24 SW25G33   29.66F
PERRY *          N/A     57  24  27 SW23G32   29.58F
$$

IAZ004>006-015-016-023>025-035-036-202100-
   NORTH CENTRAL IOWA

CITY           SKY/WX    TMP DP  RH WIND       PRES   REMARKS
ALGONA *       CLOUDY    52  30  43 SW21      29.53S
CLARION *      CLOUDY    55  32  41 SW16G25   29.54S
ESTHERVILLE    CLOUDY    48  28  46 SW17G24   29.50F
FORT DODGE *   CLOUDY    55  28  35 SW25      29.55F
MASON CITY     CLOUDY    55  29  36 SW21G29   29.54F
FOREST CITY *    N/A     54  32  43 SW14      29.53S
WEBSTER CITY * CLOUDY    57  30  35 SW23G30   29.53S
IOWA FALLS *     N/A     57  31  36 SW21G33   29.58F
$$

IAZ007>011-017>019-026>030-037>042-050>054-066-202100-
   NORTHEAST IOWA

CITY           SKY/WX    TMP DP  RH WIND       PRES   REMARKS
CEDAR RAPIDS   SUNNY     61  28  28 SW18G32   29.63F
CHARLES CITY * CLOUDY    55  30  38 S18       29.55F
CLINTON *      SUNNY     57  34  41 SW17      29.72F
DECORAH *      CLOUDY    52  32  46 SW12G21   29.55F
DUBUQUE        CLOUDY    54  31  41 S22G29    29.64F
MONTICELLO *   CLOUDY    59  30  33 S22       29.64F
OELWEIN *      SUNNY     55  34  44 S18G32    29.59F
WATERLOO       CLOUDY    57  29  34 SW22G32   29.58F
$$

IAZ064-065-067-068-078-202100-
   EAST CENTRAL IOWA

CITY           SKY/WX    TMP DP  RH WIND       PRES   REMARKS
DAVENPORT      SUNNY     59  31  34 SW18      29.73F
IOWA CITY      SUNNY     62  29  28 SW20G32   29.69F
MT. PLEASANT * SUNNY     58  31  35 S26G35    29.73F
MUSCATINE *    SUNNY     61  32  33 S22G32    29.71F
QUAD CITIES    SUNNY     59  32  36 S16G31    29.71F
$$

IAZ062-063-075>077-085>089-095>099-202100-
   SOUTHEAST IOWA

CITY           SKY/WX    TMP DP  RH WIND       PRES   REMARKS
BURLINGTON     SUNNY     59  34  39 S24G32    29.75F
FAIRFIELD *    SUNNY     59  27  29 S28G33    29.70F
FORT MADISON * SUNNY     61  30  31 S23G33    29.76F
KEOKUK *       SUNNY     61  30  31 SW23G37   29.76F
OSKALOOSA *      N/A     59  29  32 SW26G36   29.67F
OTTUMWA        SUNNY     60  28  29 SW25G36   29.69F
WASHINGTON *   SUNNY     61  28  29 SW24G32   29.70F
$$

ABBREVIATIONS USED IN REMARKS
   TC - TEMPERATURES IN CELSIUS
  WCI - WIND CHILL INDEX
   HX - HEAT INDEX
  VSB - VISIBILITY
$$





USA.gov is the U.S. government's official web portal to all federal, state and local government web resources and services.